Location: Alt?nova Orta
(36.9295°N, 30.7847°E)
Time: 05:44:46
(UTC+00:00)

STARLINK-1109 - Pass Details

Date: 17 February 2020
Orbit: 548 x 550 km, 53.0° (Epoch: 31 March)

Event Time Altitude Azimuth Distance (km) Brightness Sun altitude
Exits shadow 03:49:18 16° 295° (WNW) 1,386 5.1 -11.6°
Maximum altitude 03:51:04 21° 330° (NNW) 1,173 5.0 -11.2°
Drops below altitude 10° 03:54:05 10° 21° (NNE) 1,713 6.3 -10.6°
Sets 03:56:39 0° 38° (NE) 2,588 7.5 -10.1°
